Regional Weather Roundup
Issued by NWS State College, PA

Home | Current Version | Previous Version | Text Only | Print | Product List | Glossary On
Versions: 1 2 3 4 5 6 7 8 9 10 11 12 13 14 15 16 17 18 19 20 21 22 23 24 25 26 27 28 29 30 31 32 33 34 35 36 37 38 39 40 41 42 43 44 45 46 47 48 49 50
000
ASUS41 KCTP 061910
RWRCTP

REGIONAL WEATHER ROUNDUP
NATIONAL WEATHER SERVICE STATE COLLEGE PA
200 PM EST TUE DEC 06 2016

Note: "fair" indicates few or no clouds below 12,000 feet with no
significant weather and/or obstructions to visibility.

* = STATION THAT DOES NOT REPORT PRECIPITATION /E.G. RAIN...SNOW...ETC/
    THUNDER OR FOG.

PAZ002>004-007>009-013>016-020>023-029>032-062000-
WESTERN PENNSYLVANIA

CITY           SKY/WX    TMP DP  RH WIND       PRES   REMARKS
ERIE           LGT RAIN  39  32  76 SE9       29.74F
MEADVILLE      LGT RAIN  35  30  82 VRB7G22   29.70F
FRANKLIN*        N/A     34  28  80 E15G21    29.73F
NEW CASTLE     NOT AVBL
BEAVER COUNTY  DRIZZLE   37  36  93 SE9G18    29.68F
BUTLER*        CLOUDY    36  32  87 E14       29.72F
PITTSBURGH INT LGT RAIN  40  37  89 E13G21    29.68F FOG
PITTSBURGH     RAIN      38  34  85 SE14      29.70F FOG
INDIANA*       CLOUDY    36  32  87 SE12      29.79F
LATROBE        LGT RAIN  37  34  87 SW12G23   29.73F
WASHINGTON CO* NOT AVBL
$$

PAZ004>006-010>012-017>019-024>028-033>037-041-042-045-046-049>053-062000-
CENTRAL PENNSYLVANIA

CITY           SKY/WX    TMP DP  RH WIND       PRES   REMARKS
BRADFORD       CLOUDY    34  26  72 SE17G33   29.76F
DUBOIS         FRZ RAIN  33  28  81 SE14G26   29.76F
CLEARFIELD     NOT AVBL
JOHNSTOWN      NOT AVBL
ALTOONA        LGT RAIN  35  32  88 SE9       29.85F FOG
STATE COLLEGE  LGT RAIN  36  30  80 SE7G16    29.86F
WILLIAMSPORT   NOT AVBL
SELINSGROVE    LGT RAIN  37  34  89 CALM      29.93F
FT INDIANTOWN  NOT AVBL
CAPITAL CITY   NOT AVBL
HARRISBURG     NOT AVBL
YORK           LGT RAIN  39  36  89 E5        29.91F
$$

PAZ038>040-043-044-047-048-054-055-060>062-067>071-062000-
EASTERN PENNSYLVANIA

CITY           SKY/WX    TMP DP  RH WIND       PRES   REMARKS
SCRANTON       NOT AVBL
MOUNT POCONO   CLOUDY    34  26  72 SE10      29.93F
ALLENTOWN      CLOUDY    43  29  57 SE7       29.99F
QUAKERTOWN*    CLOUDY    41  32  70 E6        30.00F
READING        NOT AVBL
LANCASTER      LGT RAIN  40  37  89 E10       29.92F
COATESVILLE    MIX PCPN  39  36  87 E8G16     29.97F
POTTSTOWN      NOT AVBL
BLUE BELL      CLOUDY    41  32  70 E6        29.98F
DOYLESTOWN     NOT AVBL
WILLOW GROVE   NOT AVBL
NORTH PHILA    NOT AVBL
PHILADELPHIA   NOT AVBL
$$



USA.gov is the U.S. government's official web portal to all federal, state and local government web resources and services.